Theta_e
333 332 332 330 327 324 324 324 323 323 323 322 322 322 322 321 321 321 322 323 323 323 322 322 321 320 319 319 318 316 316 315 313 312 311 312 315 316 314 312 311 312 311 310 307 305 307 309 309 309 309 310 311 312 312 312 312 312 312 311 311 311 311 312 313 313 313 313 313 313 313 313 312 312 311 311 310 310 310 309 308 307 307 308 307
334 333 332 331 329 325 324 324 323 323 322 322 322 323 322 321 321 321 321 321 321 322 322 321 320 320 319 318 317 316 316 314 313 311 310 311 313 314 314 312 311 311 311 310 308 305 306 308 309 309 309 309 311 312 312 312 311 312 312 311 311 311 310 311 313 313 313 313 313 313 313 313 312 312 311 311 310 310 310 309 309 308 307 308 307
335 334 333 332 330 328 326 325 324 323 322 322 323 323 322 321 321 322 322 321 321 321 321 320 320 319 319 318 317 316 316 315 313 311 309 311 312 313 313 312 311 312 311 310 308 306 305 307 309 309 309 309 311 311 311 311 311 312 311 311 311 311 310 311 312 312 313 313 313 313 313 313 312 312 312 311 310 310 310 310 309 308 308 308 307
336 335 334 333 332 330 328 326 325 324 323 323 323 323 322 322 322 322 322 322 322 321 320 320 320 319 318 318 317 316 315 314 314 311 309 310 311 310 310 311 311 311 311 310 309 307 305 306 308 309 309 310 310 311 311 311 311 312 311 310 310 310 310 311 312 312 313 313 313 313 313 313 312 312 312 311 310 310 310 310 309 308 308 308 308
335 335 335 334 333 332 331 329 327 325 324 323 323 322 322 322 322 322 322 322 322 321 320 320 320 320 319 318 317 316 315 314 313 311 309 309 310 310 310 311 310 310 311 310 309 307 305 305 308 308 308 310 309 310 311 310 311 311 310 309 309 310 311 312 312 312 312 313 313 313 313 312 312 312 312 311 311 310 310 310 309 309 308 308 308
335 335 335 335 334 334 333 331 329 327 325 324 323 322 322 322 322 322 322 322 322 321 320 319 320 320 319 318 316 315 315 314 312 311 308 307 308 309 310 310 310 311 312 311 310 308 305 305 307 307 308 309 308 310 309 308 310 310 308 308 309 309 311 313 313 312 313 313 313 313 312 312 312 312 312 311 311 311 310 309 309 309 308 308 308
336 335 335 335 335 335 335 333 332 330 328 326 324 323 322 322 322 322 322 322 322 321 321 320 319 319 319 318 316 315 314 313 312 311 309 307 306 307 308 310 311 311 312 312 311 310 307 305 306 307 307 307 308 309 308 306 309 310 308 308 309 310 312 313 312 313 313 313 313 313 312 312 312 313 312 312 311 311 310 310 309 309 308 308 308
337 336 335 335 335 335 335 335 334 333 331 328 326 325 324 323 323 323 322 322 321 321 320 320 319 319 319 318 317 315 313 313 312 310 308 307 306 306 308 310 311 311 312 311 310 310 307 306 307 306 304 305 306 307 306 305 307 308 308 308 309 311 313 313 312 313 313 313 313 312 312 312 313 313 313 312 311 311 310 310 310 309 309 308 308
338 337 336 336 336 336 335 335 335 334 333 331 328 326 325 324 324 324 324 323 322 321 320 320 319 318 318 318 317 316 313 312 312 311 309 307 306 305 306 308 310 311 312 310 309 309 307 305 306 305 302 304 306 305 305 305 305 306 307 308 310 312 312 312 313 313 313 313 313 312 312 313 313 313 312 312 311 311 310 310 309 309 309 308 308
338 338 337 337 337 337 336 336 335 334 333 332 331 329 327 326 325 325 325 324 323 323 321 320 319 318 318 317 317 316 314 312 311 311 311 308 306 304 305 308 310 310 310 309 308 309 307 305 307 306 303 305 306 306 306 305 305 306 307 308 309 310 311 312 313 313 313 313 313 312 312 312 312 312 312 312 312 311 311 310 309 309 309 308 308
338 338 337 336 336 336 336 336 335 335 334 333 332 331 329 327 326 326 326 326 325 324 323 322 321 320 319 318 317 316 314 313 312 311 310 309 308 306 304 305 308 310 310 310 309 309 307 305 306 308 307 306 307 307 307 306 305 307 308 308 308 309 310 311 312 313 313 313 313 312 312 312 312 312 312 312 312 311 311 310 310 309 309 308 308
336 337 337 336 336 335 335 336 335 334 334 334 333 332 331 329 328 327 327 326 326 326 324 323 322 321 320 319 317 315 314 314 312 311 311 309 309 308 303 300 303 308 309 309 309 308 306 305 306 307 308 306 306 308 309 308 306 307 308 308 309 309 310 311 312 312 312 312 312 312 312 312 312 312 312 312 312 311 311 311 310 309 309 308 308
336 336 336 336 336 335 334 334 334 333 333 333 332 332 332 331 330 329 328 327 327 327 326 325 324 323 322 320 317 315 314 315 314 312 311 310 309 309 305 298 298 303 308 309 309 308 305 305 306 307 307 307 307 309 311 310 309 309 309 309 310 310 310 310 311 312 311 312 312 312 312 312 312 312 312 312 312 311 311 311 310 309 309 309 308
335 335 334 333 333 333 332 332 331 331 331 331 330 331 330 330 330 330 330 329 328 327 326 326 325 325 324 321 319 316 315 315 314 313 311 310 308 309 306 299 295 299 305 309 310 308 305 304 306 308 309 308 308 307 308 310 311 311 310 310 311 311 311 310 311 312 311 311 311 311 310 310 310 311 311 312 312 312 311 311 310 309 309 309 308
332 331 329 329 329 328 328 328 328 328 328 328 328 329 329 329 329 329 330 329 328 328 327 326 326 325 325 322 319 317 316 314 314 313 312 310 309 308 306 299 295 296 302 308 310 308 305 304 306 308 309 309 307 305 304 307 309 310 311 311 311 310 309 309 310 311 311 310 310 309 309 309 309 310 311 311 312 312 311 310 310 309 309 308 308
327 327 326 326 325 325 325 325 325 325 326 326 326 327 327 327 327 327 328 328 328 328 327 326 326 325 324 322 320 318 317 315 315 314 312 310 309 307 305 300 295 294 300 307 310 308 305 304 306 307 308 308 307 305 303 304 306 309 310 311 310 309 308 309 309 309 309 309 309 309 308 309 309 310 311 311 312 311 310 310 310 309 309 308 308
324 323 323 323 322 322 322 322 324 325 325 326 326 326 326 326 326 326 326 327 327 327 326 325 325 324 324 322 321 319 318 317 315 314 313 311 309 308 305 300 294 293 298 305 309 308 305 304 306 307 307 307 307 305 303 304 306 308 310 311 310 310 309 310 310 309 309 309 309 310 309 309 309 310 311 311 311 311 310 310 311 310 309 309 309
322 320 320 321 320 320 320 321 323 324 324 324 324 324 324 325 325 326 326 326 326 326 325 325 324 324 324 322 321 320 319 318 317 315 313 312 309 308 306 300 295 297 302 306 309 307 304 304 306 307 307 306 305 304 304 304 305 308 309 310 311 311 310 310 310 309 310 311 311 311 311 311 310 311 311 311 311 311 311 311 311 310 310 310 309
321 320 321 321 320 320 321 322 322 322 322 322 323 323 323 324 324 324 324 324 325 324 324 324 323 323 324 323 322 321 319 319 318 316 314 313 310 309 306 299 298 302 306 308 308 306 304 304 304 305 306 306 304 304 304 303 304 307 309 310 310 311 311 310 311 311 311 312 312 311 312 311 311 311 311 311 311 312 312 311 311 311 310 310 309
321 322 321 320 320 321 322 322 322 322 322 322 322 321 321 321 321 322 322 323 324 323 323 323 323 323 323 323 322 321 319 319 318 316 315 313 311 310 305 299 300 304 306 308 308 305 304 303 300 300 303 304 302 302 302 303 304 306 308 308 309 310 310 310 311 311 311 312 312 311 312 311 311 311 311 311 311 312 312 311 311 311 310 310 310
321 320 318 318 320 321 321 320 321 322 321 321 320 319 319 319 320 321 321 322 322 322 323 323 323 323 323 322 321 321 319 319 318 317 316 313 311 310 305 299 300 304 306 308 308 304 303 303 300 298 298 298 298 299 299 301 304 306 306 305 306 308 309 310 311 311 311 311 311 311 311 311 311 311 311 310 311 311 311 311 311 311 310 310 310
319 317 316 318 319 319 318 318 319 320 320 319 317 316 316 317 320 321 321 321 321 321 321 321 322 322 322 322 322 321 320 319 318 317 316 314 312 311 306 300 299 303 307 308 306 304 303 303 302 300 297 295 295 296 296 298 303 305 305 303 304 306 308 309 310 310 310 310 310 310 310 310 311 311 311 310 311 311 311 310 310 310 310 310 310
317 316 316 317 318 317 317 317 317 318 318 316 315 314 314 316 318 318 318 319 321 320 319 320 321 321 321 321 321 321 320 320 319 317 316 315 313 311 308 302 298 302 307 307 304 303 303 302 303 303 299 295 295 295 294 297 302 305 304 303 303 306 308 309 310 310 310 310 310 310 310 310 310 310 311 311 310 310 311 310 310 310 310 310 310
316 316 316 316 316 316 316 316 316 315 315 314 314 314 314 314 314 315 315 316 318 318 318 319 319 319 319 319 319 320 320 320 319 318 317 316 313 311 308 303 299 300 305 304 302 302 302 302 303 302 298 296 295 294 293 295 300 304 303 302 304 306 308 309 309 310 310 310 310 309 310 309 310 310 310 311 310 310 310 310 310 310 310 310 309
315 315 315 314 314 314 314 314 313 313 312 312 312 313 312 312 312 313 313 313 315 316 316 316 316 316 317 317 316 317 319 319 319 318 317 316 314 311 308 304 299 299 303 302 300 300 301 301 302 300 297 295 296 296 294 295 298 302 303 302 303 307 308 309 309 310 309 310 310 309 309 309 309 309 310 310 310 309 310 310 310 309 309 309 309
314 313 313 313 312 312 312 312 311 311 311 311 312 312 312 312 312 312 312 312 313 313 313 313 314 314 314 314 312 313 317 319 319 318 316 315 313 310 308 303 298 298 302 301 299 300 300 300 300 299 297 296 296 298 299 298 298 300 302 301 303 306 307 308 309 309 309 309 309 309 309 309 309 309 310 310 310 309 309 309 309 309 308 308 308
312 312 312 312 311 311 312 312 312 312 312 312 312 312 312 313 313 312 313 313 313 313 312 312 313 312 312 312 311 311 314 317 318 317 314 311 309 308 306 301 296 298 302 301 299 299 299 299 300 298 297 296 296 298 301 301 299 299 301 302 304 306 307 309 309 309 309 309 309 309 309 309 309 309 309 310 310 310 310 310 309 309 308 308 307
311 311 311 312 312 312 312 312 312 312 312 312 312 312 312 313 312 313 313 312 312 312 311 312 312 312 312 312 312 311 311 314 317 316 312 309 308 307 305 298 293 297 302 300 298 298 298 299 299 297 296 297 296 297 299 299 299 300 300 302 304 306 308 309 309 309 309 309 309 309 309 309 309 309 309 310 309 310 310 310 310 309 308 308 307
311 312 312 313 313 312 312 312 312 312 312 312 312 312 312 312 312 312 312 311 310 309 308 309 310 310 311 311 311 312 311 313 315 315 313 312 310 308 307 299 293 297 302 299 296 298 299 298 297 296 296 297 295 296 298 298 299 300 301 302 305 307 308 309 309 309 309 309 309 309 309 309 309 309 310 310 309 309 310 310 309 309 308 307 307
312 312 313 313 312 311 311 311 311 311 311 311 312 311 312 311 311 311 310 309 309 307 307 307 308 308 309 310 310 311 311 311 312 312 313 314 310 309 310 302 294 297 301 298 296 299 299 298 298 298 297 296 296 297 299 300 301 303 303 304 306 307 308 308 309 309 309 309 309 309 309 309 309 309 309 310 309 309 309 310 309 309 308 307 307
312 313 313 312 311 310 310 311 311 311 310 311 310 310 310 310 310 310 309 307 307 306 306 307 307 307 307 307 308 310 310 311 311 311 312 313 309 308 308 303 296 297 299 297 297 300 299 299 299 298 297 296 297 299 300 301 302 304 304 304 305 306 307 308 308 308 308 308 309 309 309 309 309 309 309 309 309 309 309 309 309 309 308 307 306
312 312 312 311 310 310 310 310 310 310 310 310 309 309 309 309 308 308 306 305 305 305 305 305 305 306 306 306 307 308 309 310 311 310 311 311 309 307 307 302 297 296 297 297 299 301 299 299 299 298 296 296 298 300 301 300 302 303 305 305 305 306 307 307 307 307 308 308 309 309 309 309 309 309 309 309 310 309 309 309 309 308 307 307 307
311 311 310 310 310 310 310 310 310 310 309 309 308 308 307 306 306 305 304 304 304 304 304 304 304 305 305 306 307 308 307 307 308 309 309 309 308 307 305 301 297 295 295 297 301 301 299 298 299 298 297 298 299 300 300 300 301 303 304 304 305 305 306 306 306 306 307 308 308 308 308 308 308 308 309 309 309 309 309 309 308 308 308 307 307
310 310 310 310 309 309 309 309 309 309 308 307 306 305 305 305 304 304 304 303 303 303 303 303 303 304 304 305 307 307 307 306 307 307 308 307 307 305 301 299 297 295 294 297 300 300 299 298 298 298 299 300 300 300 299 299 300 302 304 304 304 305 305 305 306 306 306 307 308 308 308 308 308 308 309 309 309 309 309 308 308 308 308 308 308
310 310 309 309 309 309 309 309 309 308 307 306 305 304 304 304 303 303 302 302 302 302 302 302 302 303 303 305 306 306 305 305 306 306 306 306 304 301 299 298 298 296 295 298 301 300 299 299 299 299 300 300 300 299 298 298 298 300 302 304 305 305 305 305 305 305 305 306 308 308 308 308 308 308 309 309 309 309 309 308 308 308 309 309 308
309 309 309 309 309 309 308 308 308 307 305 305 304 304 304 303 302 302 301 301 301 301 301 302 302 302 303 306 306 304 303 303 304 304 305 305 302 300 299 299 299 297 297 299 300 300 300 300 299 300 300 299 299 299 298 297 298 299 301 304 305 305 304 304 305 305 305 306 307 308 308 308 308 308 308 308 309 309 309 309 309 309 309 308 308
309 308 308 308 308 308 308 307 306 306 305 304 304 304 303 302 302 301 301 301 301 301 301 301 302 301 302 305 305 303 302 302 303 304 303 302 300 299 299 299 298 298 299 299 299 299 300 300 299 300 299 299 299 298 297 297 298 299 300 304 305 305 304 304 304 305 305 306 307 307 308 308 308 308 308 308 308 308 308 308 309 309 308 308 307
308 308 308 307 307 307 307 306 306 305 305 304 303 303 302 302 301 301 301 301 301 300 300 300 300 300 301 302 303 302 301 301 303 303 302 299 298 298 299 299 298 298 299 298 297 298 300 300 299 299 299 298 298 298 297 297 298 299 301 304 305 304 304 304 304 305 305 305 306 307 307 308 307 307 308 308 307 307 308 308 308 308 308 307 306
307 308 307 307 306 306 306 305 305 305 304 303 303 302 302 302 301 301 300 300 300 299 299 299 299 299 300 300 301 300 300 301 302 303 302 299 297 298 299 299 299 298 298 297 297 298 300 299 299 299 298 298 298 297 297 298 298 299 301 304 304 303 304 304 304 305 304 304 305 307 307 307 307 307 307 307 307 307 307 308 308 308 307 306 304
307 306 306 306 306 306 305 305 304 304 303 303 302 302 301 301 300 300 299 299 299 298 298 298 298 299 299 299 299 299 299 300 301 302 302 300 298 298 298 299 298 298 297 296 297 299 299 299 298 298 298 298 298 297 297 298 298 299 302 304 304 303 304 304 304 304 304 304 305 307 307 307 306 306 306 306 306 306 307 308 308 307 306 304 304
305 305 306 307 306 305 305 304 304 303 302 302 301 301 300 300 299 299 299 298 298 298 298 298 298 298 298 298 299 299 299 299 300 301 302 301 299 298 298 298 298 297 296 296 297 299 299 298 298 299 299 298 298 297 297 298 298 300 302 303 303 303 303 304 304 304 304 304 305 306 307 307 306 306 305 305 306 306 307 307 306 305 305 304 304
304 305 306 306 305 305 305 304 303 302 302 301 300 300 299 299 299 299 298 298 298 298 297 297 297 298 298 297 298 298 298 298 299 301 302 302 300 299 298 298 297 297 296 296 297 299 299 298 298 299 299 298 298 298 297 298 298 299 301 303 303 303 303 304 304 304 304 304 305 306 306 307 306 306 305 305 305 306 306 306 305 305 305 305 305
304 306 306 306 305 305 304 303 302 301 301 300 300 299 299 299 298 298 298 297 297 297 297 297 297 297 296 296 297 297 297 298 299 300 302 302 301 299 299 299 298 297 297 297 298 299 299 297 298 299 299 298 298 298 297 298 298 299 300 303 304 303 303 304 303 303 303 304 305 306 306 306 305 305 305 305 305 305 305 305 305 305 305 305 304
306 306 306 305 305 304 303 302 301 301 300 300 299 299 298 298 298 298 297 297 296 296 296 296 296 296 296 296 296 297 297 297 298 299 301 302 302 301 300 299 298 298 298 297 298 299 299 297 297 299 299 298 298 298 297 297 298 298 300 303 303 303 303 303 303 303 303 304 304 305 305 305 305 305 305 305 305 304 304 305 305 305 305 304 304
306 306 305 304 304 303 302 301 301 300 300 299 299 298 298 297 297 297 297 296 296 296 295 295 295 295 295 296 296 296 296 297 297 298 300 302 303 302 301 300 299 298 298 298 298 300 299 297 297 299 299 298 298 297 297 297 298 298 299 302 303 302 302 303 303 303 303 303 304 304 304 304 304 305 305 305 305 304 304 304 305 305 305 304 303
306 305 304 303 303 302 301 301 300 299 299 299 298 298 297 297 296 296 296 296 295 295 295 295 295 295 295 296 296 296 296 297 298 298 299 302 303 303 302 301 300 299 299 299 299 299 298 297 297 299 299 298 297 297 297 298 297 297 299 302 303 303 303 303 302 302 302 303 303 303 303 303 304 304 305 305 305 304 304 304 304 304 304 304 303
305 304 303 303 302 301 301 300 299 299 299 298 298 297 296 296 296 296 295 295 295 295 295 295 295 295 295 296 296 296 296 296 298 298 299 302 304 304 303 301 300 299 299 300 299 299 298 297 297 298 299 299 297 297 297 297 297 297 298 301 303 303 303 302 302 302 302 302 302 302 302 303 304 304 304 305 305 304 303 303 303 303 304 304 303
304 303 303 302 302 301 300 300 299 299 298 298 297 297 296 296 296 295 295 295 295 295 295 295 295 295 296 296 296 296 296 296 297 298 300 302 304 304 303 302 301 300 300 300 299 298 297 297 297 299 300 299 297 297 297 297 297 297 298 300 303 303 302 302 302 302 301 301 301 301 302 303 304 304 304 304 304 304 303 303 303 303 303 303 302
304 303 302 302 301 300 300 299 299 299 298 298 297 297 296 296 295 295 295 295 295 295 295 295 296 296 296 296 296 296 296 297 298 299 300 302 303 302 302 302 301 300 300 300 299 298 297 297 298 300 300 299 297 297 297 297 297 297 297 299 302 303 302 302 302 301 301 301 301 301 302 303 304 303 303 303 303 303 303 303 303 302 302 302 301
303 303 302 302 301 300 300 299 299 299 298 297 297 296 296 295 295 295 295 295 295 295 295 296 296 296 296 296 296 296 296 297 298 299 301 302 302 301 302 302 301 300 300 299 298 297 297 297 299 300 300 299 297 297 297 297 297 297 297 299 301 302 302 302 301 301 300 301 301 302 303 303 303 303 303 303 303 302 302 302 302 302 302 301 301
303 303 302 301 301 300 299 299 299 298 298 297 297 296 296 295 295 295 294 295 295 295 296 296 297 297 297 296 296 296 297 297 298 299 301 302 301 301 301 301 300 299 299 298 297 297 297 298 299 300 300 299 297 297 297 296 296 297 298 299 301 302 302 301 301 301 301 301 301 301 302 303 303 302 302 302 301 301 301 301 301 301 301 301 300
Wind_Speed
15 14 14 13 12 11 12 12 11 11 11 11 11 11 11 11 10 10 9 9 9 10 10 11 11 10 10 10 10 9 8 8 7 5 7 8 8 6 5 6 7 6 6 7 7 7 8 8 12 13 10 10 12 12 12 13 14 15 16 15 17 17 12 10 6 6 11 14 13 16 17 14 15 17 15 16 23 27 28 29 32 34 36 40 46
16 14 13 13 13 13 12 13 12 12 12 12 12 12 11 11 11 11 11 10 10 11 11 11 11 11 10 10 10 10 9 8 6 5 6 8 8 7 6 5 6 6 6 6 7 8 8 8 10 12 10 9 11 11 11 13 13 14 16 16 17 16 13 12 9 6 8 14 14 15 17 16 15 17 17 15 18 24 26 27 29 30 33 38 43
16 15 14 13 13 14 13 13 13 12 12 13 13 12 12 11 11 11 11 12 11 12 12 12 11 11 11 11 11 10 10 9 7 7 7 7 7 7 6 6 6 6 6 5 7 8 8 8 9 11 11 10 10 11 11 12 13 14 16 15 15 15 15 14 11 8 8 10 12 13 14 15 15 16 16 15 17 22 24 25 26 26 29 35 40
16 16 15 14 13 13 13 13 13 13 13 14 13 13 13 12 12 12 12 12 12 13 12 12 12 12 12 12 12 11 11 10 9 8 7 7 8 7 7 6 5 6 6 5 6 7 8 8 7 9 11 10 10 11 13 13 14 15 15 15 15 15 15 14 13 11 9 8 10 13 12 13 13 14 15 15 17 22 23 23 24 24 26 30 35
13 15 15 14 14 14 14 14 14 14 14 14 14 13 13 13 13 13 13 13 13 13 13 13 13 13 13 13 13 12 12 10 8 7 5 6 8 8 8 7 6 6 6 5 6 6 7 8 7 7 10 10 10 11 13 13 13 14 15 16 17 17 16 15 13 12 10 8 10 12 12 12 12 13 15 15 16 19 21 22 23 24 25 28 31
10 12 13 13 14 14 14 14 15 15 15 15 14 14 13 13 14 13 14 14 14 14 14 14 14 14 14 13 13 12 12 10 7 7 7 8 9 9 10 10 7 7 6 5 6 6 7 7 6 6 8 9 9 9 11 11 12 13 15 16 17 17 16 15 13 11 9 8 10 12 13 14 12 12 14 16 17 17 18 21 24 24 24 26 28
9 10 11 12 13 14 15 15 14 14 15 15 14 14 14 14 14 14 14 14 14 14 14 14 14 15 15 14 13 12 10 9 9 9 9 8 10 11 11 10 8 7 7 5 6 6 7 7 4 4 6 6 6 6 8 10 11 12 14 15 16 15 15 14 12 12 11 11 12 12 13 14 14 13 13 15 18 18 17 18 19 22 24 26 26
8 9 10 11 11 12 13 13 13 13 13 13 14 14 14 15 15 15 15 15 15 15 14 14 14 16 17 16 14 11 9 9 12 13 11 9 10 11 10 9 9 7 6 5 5 5 6 6 2 2 4 4 3 4 6 8 9 10 12 13 14 13 13 13 12 11 11 11 12 12 12 13 14 14 14 15 16 17 17 17 16 18 21 24 25
7 8 9 10 11 11 11 11 12 13 13 13 14 14 15 16 16 16 16 16 17 16 16 16 16 17 18 16 14 13 13 12 14 16 14 11 12 11 9 9 10 8 6 5 5 5 5 5 3 0 3 1 2 3 5 6 7 8 11 12 12 11 12 12 12 12 11 10 12 12 11 11 12 14 15 14 12 14 17 19 18 18 20 22 25
6 7 8 9 9 10 11 12 12 13 13 14 15 15 16 17 17 17 17 17 17 18 17 17 17 17 17 16 14 15 15 13 13 15 14 13 13 12 10 9 8 8 8 6 6 5 5 5 4 1 1 1 1 3 3 5 5 6 10 12 12 12 11 11 12 13 11 10 12 13 10 10 13 15 14 12 12 14 16 17 17 17 18 19 20
5 5 7 8 8 10 12 13 13 13 14 14 15 16 16 16 17 17 18 18 19 18 18 17 17 16 16 16 14 13 12 12 14 16 15 14 14 12 12 11 9 8 9 8 7 7 5 4 3 2 2 1 2 4 3 3 3 3 7 11 12 13 13 11 11 13 12 10 12 13 11 11 15 17 14 12 14 16 16 16 16 15 14 13 12
3 5 7 8 8 9 11 11 11 11 13 13 14 15 14 15 17 18 18 19 19 18 18 17 17 16 16 16 13 10 11 15 17 18 18 17 14 10 11 13 12 11 10 9 9 6 4 3 3 5 5 3 2 5 4 3 3 1 4 8 10 12 13 12 11 12 13 11 12 13 13 13 15 16 15 12 12 16 17 17 17 16 15 14 13
5 5 7 8 8 8 8 10 10 11 11 12 12 13 13 14 17 17 17 18 18 17 17 17 17 17 16 15 13 11 12 16 18 18 19 18 14 10 10 12 14 13 11 10 10 7 4 4 4 5 4 3 3 2 1 3 6 5 2 3 7 9 11 12 11 11 12 11 12 12 12 13 13 14 15 12 11 15 17 17 18 18 17 16 16
3 3 6 8 7 7 8 9 10 10 11 12 13 13 14 16 17 17 18 18 16 16 17 18 19 19 17 17 16 15 14 15 16 17 17 16 14 11 8 9 13 14 12 11 9 6 4 5 5 4 2 4 4 3 2 3 5 7 7 4 3 5 7 8 8 9 9 8 9 10 10 12 13 12 12 12 12 13 15 16 18 20 20 19 19
3 4 6 8 8 9 9 10 10 10 10 11 12 13 13 14 14 15 15 16 15 16 17 18 18 18 16 17 16 15 15 16 17 17 17 16 13 10 7 7 10 12 12 12 10 6 4 5 5 4 1 1 1 1 2 4 4 7 7 5 2 3 6 7 7 6 6 6 7 10 11 13 14 14 11 10 12 13 16 19 20 21 21 21 20
7 8 8 10 12 13 14 14 14 14 14 14 15 15 15 14 14 14 14 14 15 16 16 16 16 14 13 15 15 13 14 16 17 17 17 16 14 11 8 7 9 11 12 12 11 7 5 6 5 3 2 2 2 2 4 5 5 7 5 5 7 4 8 9 7 6 9 10 10 12 12 13 14 14 10 8 10 13 18 20 19 18 19 18 16
11 13 12 12 14 15 15 16 16 15 15 15 15 17 17 18 18 16 15 14 15 15 16 16 15 13 13 15 16 14 16 18 18 17 17 17 15 13 10 9 9 11 12 12 10 7 6 7 5 2 2 3 2 3 5 6 5 8 7 6 10 5 7 9 8 8 11 13 12 12 13 13 15 15 12 10 9 11 16 16 14 16 15 11 10
12 13 13 13 14 15 15 15 15 16 16 16 17 17 17 18 18 17 17 16 16 16 16 17 16 13 13 16 17 16 16 18 19 18 18 18 17 14 12 10 9 10 11 10 9 7 7 8 7 3 2 2 2 5 6 6 5 8 10 0 9 7 5 6 7 7 9 11 11 11 12 14 15 16 15 14 12 12 14 13 13 15 14 10 10
12 13 13 13 14 15 15 15 15 16 16 16 16 16 17 17 18 19 19 18 17 17 15 15 16 14 12 15 17 17 17 17 17 18 19 19 19 16 13 11 10 10 11 11 9 8 8 8 9 8 4 1 3 5 6 6 4 6 10 5 5 8 6 5 4 4 5 6 6 8 10 12 14 14 16 16 15 14 13 13 13 15 15 13 12
11 12 12 13 13 13 13 14 14 15 15 14 14 16 18 18 18 19 19 19 18 17 16 14 15 15 12 12 16 17 18 18 17 17 19 19 20 18 14 13 12 10 11 11 10 9 8 7 7 10 9 6 6 7 7 6 3 4 8 8 8 10 8 4 3 2 3 5 5 7 10 11 12 13 14 16 17 16 14 12 12 14 15 14 12
11 12 13 14 13 12 13 14 14 14 13 12 14 17 18 18 18 17 17 18 18 19 18 16 15 14 13 11 13 15 17 18 18 18 18 19 20 18 16 16 14 10 10 11 13 13 10 7 5 6 7 7 7 7 7 4 1 1 4 6 7 7 7 5 3 3 4 6 6 9 11 11 12 13 13 14 17 18 18 15 13 13 14 13 11
11 13 14 13 12 13 14 15 14 13 13 13 15 18 19 18 17 16 16 16 17 18 19 18 16 14 13 12 12 13 15 16 19 19 19 19 20 20 18 16 14 10 7 8 13 16 13 9 6 3 3 4 6 7 6 4 3 2 1 2 2 3 5 3 3 4 4 5 7 9 10 11 12 12 12 13 14 16 18 18 16 15 14 12 13
12 13 14 13 14 14 15 15 14 14 13 14 17 20 21 19 17 17 17 16 15 15 17 18 17 14 13 12 12 13 14 16 18 20 20 20 21 21 19 17 16 12 6 5 13 16 13 10 6 2 1 4 5 5 5 5 5 4 2 2 4 4 2 2 3 6 5 6 8 8 8 10 11 11 11 12 13 15 18 19 19 18 16 14 14
12 14 14 14 15 15 15 15 15 15 16 18 19 20 20 20 19 18 18 17 15 15 16 16 14 14 14 13 12 10 11 16 19 21 21 21 22 22 20 18 17 15 9 8 15 15 11 9 6 3 3 5 5 5 4 6 7 7 4 4 4 4 1 3 4 7 6 7 9 8 9 10 10 11 11 10 12 15 19 21 22 23 22 20 20
13 14 14 14 15 16 15 15 15 17 19 20 19 19 19 20 20 19 19 19 18 16 16 15 15 15 14 14 16 15 8 12 19 21 21 21 22 23 22 19 19 17 12 12 15 13 10 9 6 3 5 6 4 3 3 5 8 9 7 6 6 5 1 1 4 7 7 7 8 9 10 10 9 9 10 10 12 17 21 24 25 26 27 27 26
14 14 14 15 16 15 15 16 18 19 19 19 18 18 19 19 19 18 18 18 18 18 18 17 17 17 15 15 18 19 11 4 13 19 21 23 23 23 22 21 20 17 14 15 16 13 11 10 7 5 8 8 6 4 2 3 7 10 9 9 9 5 3 1 6 8 8 8 8 9 10 9 8 9 8 10 14 17 20 22 23 22 24 27 28
14 14 15 15 16 15 16 18 19 18 17 17 17 16 17 17 17 16 16 16 17 18 17 16 16 17 18 17 17 18 15 6 8 16 20 22 23 24 24 23 21 19 17 18 19 17 14 12 9 8 9 8 7 6 4 3 7 10 11 11 10 5 3 4 8 8 8 9 9 10 10 9 8 7 8 9 13 15 16 19 20 19 21 24 25
14 14 14 15 15 15 17 18 18 17 17 18 17 16 17 17 16 17 17 16 17 19 19 18 17 17 18 18 16 16 17 12 5 12 17 19 22 24 26 25 23 22 21 20 19 18 15 13 11 10 9 8 8 8 6 7 9 11 11 12 9 5 4 8 9 7 8 10 10 10 10 9 7 7 8 9 12 15 16 17 18 17 18 19 20
14 14 14 14 14 16 17 17 16 17 18 18 18 18 18 19 20 20 18 17 21 25 25 24 24 23 21 20 17 16 16 13 6 6 11 15 20 25 27 28 27 26 25 22 19 18 15 13 13 11 9 9 9 7 7 8 10 11 11 12 11 9 10 11 10 9 9 9 10 11 11 10 9 9 9 10 12 14 16 16 16 17 17 18 18
13 14 13 13 14 16 17 16 16 17 19 19 20 21 21 21 21 19 19 22 25 27 27 26 26 27 26 23 20 19 18 15 12 11 12 15 20 22 25 29 30 27 25 22 19 17 16 14 13 13 11 10 9 8 8 9 10 10 12 13 13 12 12 11 11 10 10 10 11 10 10 10 10 8 8 10 12 12 14 15 16 17 18 18 17
12 13 13 13 15 17 17 17 18 19 19 20 20 21 21 21 20 19 23 29 31 30 28 27 26 27 28 28 27 24 21 18 15 12 11 14 18 19 21 27 29 27 26 24 19 17 16 14 13 14 13 11 10 9 10 11 11 12 13 13 12 13 11 10 11 11 11 12 11 9 10 11 10 8 7 8 10 12 14 14 14 16 19 20 18
12 12 13 14 17 17 17 17 19 19 20 21 21 21 21 21 21 22 25 28 28 27 27 27 27 28 28 30 33 28 19 15 13 10 8 12 15 16 19 25 28 28 27 24 20 17 17 15 14 14 13 13 12 11 11 14 15 16 14 11 14 14 11 11 11 12 13 15 14 11 11 13 12 9 7 8 10 13 14 13 13 17 19 20 20
12 13 14 15 17 17 17 17 18 19 21 21 20 20 20 20 21 23 25 25 24 25 25 26 27 28 29 30 33 29 17 12 12 10 7 10 14 16 19 25 27 27 27 24 19 17 18 17 16 15 13 14 13 11 11 14 15 15 13 12 16 15 13 12 10 9 11 14 15 14 14 14 14 12 9 9 11 13 13 13 16 18 18 18 19
14 15 16 17 17 17 17 17 18 19 19 18 18 19 19 19 20 21 23 24 23 24 24 24 24 26 28 29 29 27 20 12 10 8 7 9 13 16 21 24 24 24 27 24 18 16 18 17 16 16 15 14 13 11 10 11 11 11 11 12 15 16 14 13 10 9 10 13 15 15 14 13 14 13 12 10 10 12 13 15 17 17 16 16 16
15 16 17 18 18 17 17 17 17 18 17 16 17 18 18 18 18 18 20 21 20 20 22 23 23 25 25 23 22 24 24 20 13 8 6 8 12 18 23 25 23 25 26 24 19 18 19 18 16 16 16 14 11 12 12 11 10 11 11 10 16 18 14 13 12 10 11 13 15 16 14 13 13 14 13 11 10 10 10 12 15 17 17 17 17
16 16 17 17 17 17 17 17 17 17 17 16 17 17 17 16 16 17 18 18 18 18 19 20 22 24 22 18 19 23 26 25 19 9 6 9 13 21 26 24 23 24 23 21 20 18 18 19 16 15 15 12 9 11 12 11 10 12 11 7 18 20 14 13 14 12 11 14 16 16 14 14 15 15 13 12 11 10 10 12 17 20 20 20 19
16 17 16 16 17 17 17 17 17 18 18 17 17 17 16 16 16 16 17 17 17 18 18 18 20 22 19 16 18 23 26 26 21 11 5 8 14 21 23 20 21 22 20 20 20 16 16 18 16 15 15 12 8 10 12 10 10 11 12 5 19 21 14 14 16 14 14 17 17 16 15 16 17 16 15 13 11 9 11 16 21 22 21 21 20
16 16 16 18 19 19 17 17 18 19 19 18 17 17 17 17 17 16 16 16 17 17 17 18 19 20 18 17 19 23 25 24 19 12 6 8 15 19 17 16 19 21 18 19 20 16 14 16 16 17 17 12 8 10 11 10 9 11 12 5 19 22 15 13 15 16 17 17 15 15 17 17 17 18 17 15 13 10 11 16 20 20 19 20 20
16 16 17 20 19 18 17 18 19 19 18 18 18 17 17 16 16 15 15 15 16 16 16 18 18 18 18 19 21 24 25 21 17 13 8 10 15 15 13 14 18 20 18 19 20 16 14 17 19 19 18 13 9 11 11 9 9 11 9 4 19 22 16 14 15 15 15 14 13 16 18 17 18 19 17 15 15 14 13 15 17 17 18 21 23
16 17 19 19 17 17 17 18 18 18 18 18 18 17 16 16 16 15 16 15 16 16 16 17 18 17 19 21 22 24 23 20 17 15 10 10 15 15 13 13 17 20 20 19 19 16 15 19 21 20 18 14 10 11 11 9 8 10 9 5 16 20 17 16 15 13 13 14 14 16 18 18 19 20 18 16 16 15 14 15 17 19 22 26 27
16 17 17 16 16 17 18 17 17 17 17 18 17 17 17 17 17 17 17 16 16 17 17 17 18 19 21 22 22 23 22 20 19 18 13 10 15 18 16 15 17 21 21 20 19 17 17 20 22 21 19 15 10 11 11 9 8 8 10 7 12 18 19 20 17 13 13 16 16 17 20 21 21 20 19 18 17 16 17 20 22 24 27 28 27
16 15 15 15 16 17 17 18 18 18 17 17 17 18 18 18 17 17 16 16 16 17 18 18 19 20 21 22 22 23 22 20 19 19 15 12 15 18 18 17 18 21 21 20 20 19 19 21 22 22 20 14 10 11 11 9 9 8 9 8 11 16 18 21 21 15 14 17 18 19 22 23 21 20 20 20 19 19 22 24 24 24 25 25 24
13 12 13 14 16 16 17 17 17 17 16 17 18 18 18 18 17 17 16 16 17 18 19 20 21 21 22 22 22 21 20 18 17 18 16 12 15 18 19 19 20 21 21 21 20 18 20 23 24 23 20 14 10 11 10 9 9 9 8 6 11 13 15 21 23 18 16 20 22 22 22 21 20 20 21 20 21 22 24 24 23 23 23 23 23
11 12 13 15 16 16 17 17 17 17 18 18 18 18 18 18 18 17 16 16 18 20 20 21 22 22 21 21 19 18 18 17 17 19 19 13 14 18 18 19 21 21 21 22 20 18 21 24 25 23 20 14 10 10 10 9 10 9 6 6 12 13 13 20 23 20 20 23 24 25 24 20 19 21 21 20 21 23 24 23 22 22 22 22 22
13 13 15 15 16 16 17 17 17 18 19 19 18 18 19 19 18 17 18 18 20 22 22 22 22 21 20 19 18 17 18 18 18 19 20 14 12 17 18 19 21 21 21 22 21 20 23 27 26 24 20 15 10 10 10 8 8 8 5 8 13 14 14 21 24 21 21 23 24 24 23 20 19 20 20 20 22 24 23 23 23 22 22 22 21
14 14 15 15 15 16 17 17 17 18 18 19 17 17 19 19 18 19 20 21 22 23 23 23 22 21 19 19 18 16 16 17 17 17 19 16 10 15 17 19 21 21 20 22 21 21 25 28 26 23 20 15 10 9 8 6 6 7 5 8 11 12 14 22 23 21 20 22 21 21 21 19 18 17 18 20 22 23 23 23 24 23 22 21 21
12 14 15 15 16 17 17 17 18 18 18 18 17 17 18 19 20 21 23 23 24 24 23 23 23 21 19 18 17 16 16 17 16 15 18 17 8 13 16 17 20 20 19 20 21 23 26 28 27 24 21 16 11 8 7 5 5 6 6 8 11 11 15 21 22 19 17 18 19 19 19 19 18 18 19 21 22 22 23 23 23 23 22 20 21
12 14 15 15 16 17 17 18 18 19 18 17 17 18 20 22 23 23 23 24 24 24 24 23 23 21 19 18 17 16 16 15 15 15 17 12 5 12 14 15 19 21 19 19 22 25 27 28 27 25 22 17 11 8 7 5 5 6 7 9 11 12 14 19 20 16 14 15 16 16 17 20 21 21 21 20 20 21 22 22 22 23 23 22 22
13 14 15 16 17 17 18 18 19 19 18 18 19 20 22 23 24 23 24 24 24 24 24 25 23 21 19 17 15 15 14 13 13 15 13 5 7 12 11 14 19 21 20 20 24 27 29 28 26 23 21 18 12 8 7 6 6 7 8 10 12 14 16 18 18 17 16 16 16 16 18 22 23 22 21 20 20 20 21 20 21 24 26 24 24
13 14 16 17 17 17 18 19 19 19 18 18 21 23 23 24 24 24 25 26 26 25 26 25 23 20 18 15 13 13 13 11 12 13 9 5 9 8 8 14 19 20 20 22 26 28 29 27 24 22 20 17 13 9 8 7 6 6 8 10 12 15 17 18 18 18 17 16 16 17 20 24 24 22 21 22 21 20 19 20 21 24 26 26 25
13 15 17 17 17 18 18 19 19 19 18 19 22 24 24 23 25 26 26 27 27 27 26 25 22 18 15 12 11 11 11 10 12 12 6 8 9 5 8 16 19 19 20 24 27 29 29 27 23 21 19 17 13 10 9 8 6 6 8 12 14 16 17 18 19 18 16 15 15 16 19 22 22 21 21 21 20 19 19 19 21 23 26 26 25
Wind_Direction
202 200 203 204 203 208 211 214 223 226 230 234 236 241 246 250 256 259 259 254 251 255 257 258 259 261 263 263 265 269 272 277 278 277 287 289 284 284 295 306 311 324 334 331 332 334 328 318 311 324 357 351 327 337 350 350 355 351 346 345 338 336 346 1 355 326 348 5 13 21 25 22 20 19 17 26 32 32 34 33 32 32 34 37 39
204 203 205 208 205 208 212 214 219 222 227 232 235 241 245 249 254 256 258 258 255 255 256 257 259 259 258 258 261 264 265 269 271 272 279 286 286 285 284 286 298 310 316 322 334 334 324 321 319 327 347 342 331 347 357 353 353 345 344 344 337 341 356 2 359 340 346 1 5 16 27 27 22 18 18 27 35 39 40 37 36 37 36 38 40
202 201 203 207 210 211 213 216 219 221 225 230 233 239 244 248 253 254 254 255 254 254 254 255 256 255 254 254 254 257 258 257 259 266 268 271 279 285 283 279 282 293 304 318 329 330 326 325 323 326 337 341 342 353 357 354 352 344 341 342 342 351 0 358 359 354 344 352 0 10 22 26 25 21 19 28 44 48 45 42 42 41 39 40 41
197 194 200 204 208 212 215 218 220 221 226 230 233 237 240 243 246 249 252 253 253 254 254 253 251 250 252 251 249 251 254 250 247 254 261 266 273 282 287 283 280 288 301 313 318 325 326 322 323 323 327 341 355 358 358 358 352 346 347 349 349 355 356 354 2 3 349 350 4 13 21 26 28 24 20 31 50 54 49 45 45 44 42 43 43
197 189 197 201 205 212 216 220 223 225 228 231 235 237 240 243 244 247 249 250 251 252 252 251 248 246 246 247 246 247 248 243 238 243 254 263 264 264 272 275 275 279 288 307 313 318 321 317 323 326 327 348 8 0 358 360 351 349 0 1 354 353 355 356 2 2 356 1 9 17 28 34 33 28 23 32 51 57 52 48 49 48 44 45 46
203 191 195 201 207 212 217 222 226 230 232 234 237 238 239 242 244 245 247 249 251 252 252 252 251 249 247 245 242 245 245 235 222 227 247 265 266 256 253 254 255 264 272 290 300 305 317 316 321 334 336 355 11 359 354 358 355 358 8 4 353 351 357 358 1 3 5 17 22 25 34 36 36 33 28 34 50 58 57 54 54 51 45 45 48
202 203 203 208 213 216 220 225 229 233 237 239 239 240 241 242 243 245 246 249 251 252 253 255 255 256 254 249 246 248 243 224 218 234 248 264 269 262 254 247 247 258 265 276 287 294 306 306 312 348 347 354 7 357 356 5 10 10 7 359 350 354 3 3 5 13 16 25 32 33 38 39 37 36 36 44 54 60 63 62 58 53 48 47 48
196 214 217 222 227 229 229 229 233 238 242 244 245 244 244 244 244 246 246 247 249 250 252 254 256 259 256 250 244 242 237 231 243 254 252 247 253 257 256 252 252 253 252 265 280 285 297 294 282 4 339 339 4 6 6 16 22 12 1 357 353 0 13 10 11 21 22 27 36 38 40 39 35 35 39 46 51 57 66 70 65 59 56 52 50
194 223 230 232 236 241 243 239 240 243 244 245 248 248 250 250 249 248 249 249 249 250 250 249 252 256 257 251 235 223 229 242 254 259 252 240 240 244 249 255 257 253 246 259 267 269 292 283 227 324 348 13 43 12 9 21 28 17 10 14 11 11 17 13 15 23 24 27 38 38 37 34 33 35 37 41 53 66 75 79 75 70 66 59 53
203 234 249 250 246 249 254 252 250 252 249 246 247 249 250 252 252 252 252 251 251 253 253 250 250 252 256 255 235 222 231 239 243 249 247 236 234 242 252 256 260 256 245 246 252 253 270 260 217 208 19 85 351 333 358 16 25 24 23 31 36 31 24 17 21 27 24 28 38 39 34 30 34 40 41 45 62 76 82 84 85 80 74 66 56
215 244 265 267 265 266 263 255 252 257 258 254 254 255 252 250 253 254 255 256 256 258 258 256 256 255 257 257 243 230 235 234 231 241 244 239 241 254 260 253 253 264 255 243 248 252 249 240 227 246 242 214 285 284 295 344 3 29 30 36 46 47 39 28 28 32 28 31 41 40 33 27 33 40 41 47 65 77 83 85 85 80 73 70 62
275 278 281 275 274 279 277 270 267 270 268 262 264 266 261 256 256 254 256 259 258 258 260 260 261 262 262 259 248 236 242 244 243 245 244 241 244 260 270 257 248 264 271 256 251 253 242 227 239 254 238 207 261 271 264 291 311 335 31 37 44 49 47 40 40 42 37 36 43 41 35 32 34 34 32 41 67 81 84 83 82 80 75 75 74
283 286 297 293 290 297 300 297 297 298 293 290 289 287 281 277 272 266 265 267 264 261 262 261 260 261 260 252 240 236 246 253 252 245 238 237 237 248 272 267 252 258 273 268 256 251 241 226 235 258 243 174 153 166 212 284 298 289 283 34 36 39 45 41 41 47 47 47 47 43 40 39 35 32 33 44 72 86 89 88 86 86 83 78 75
292 332 333 322 317 315 308 302 299 296 293 291 288 283 281 281 281 277 272 269 269 269 268 266 264 262 255 242 235 237 244 252 253 244 237 236 233 237 258 265 256 259 270 274 264 246 231 226 233 257 231 152 149 142 157 260 290 293 276 267 351 24 40 40 41 50 51 50 51 50 54 54 43 38 45 56 70 83 95 100 97 94 91 84 79
43 34 354 336 336 333 326 321 315 306 302 299 295 291 286 285 289 291 285 277 276 277 276 275 277 272 256 239 234 238 244 250 251 246 240 236 231 233 245 251 251 254 263 274 270 246 231 230 233 252 258 187 223 237 250 252 270 305 293 241 188 57 63 55 48 66 68 64 70 69 70 67 53 44 53 67 72 84 101 107 105 102 97 88 82
30 30 11 350 348 347 340 335 332 329 329 326 323 322 322 321 319 313 304 296 291 289 285 284 285 279 256 235 229 236 247 251 249 243 239 235 230 231 238 236 233 233 243 261 260 243 236 233 230 248 249 243 271 258 256 258 276 318 319 172 152 80 70 68 57 80 90 83 87 83 73 68 58 48 51 67 77 98 112 112 107 105 100 91 84
15 15 7 352 348 344 336 332 332 334 335 333 331 331 330 327 323 317 310 302 294 293 291 288 287 278 254 236 233 239 247 248 244 237 234 234 229 229 237 236 226 224 233 251 253 238 225 218 216 219 173 191 246 254 254 260 283 324 330 159 146 102 80 82 71 82 92 84 84 84 75 69 64 58 58 65 81 108 119 118 114 111 106 97 95
6 3 357 349 343 338 336 338 342 345 343 337 332 330 327 325 325 324 319 309 298 294 291 290 288 277 253 241 241 244 243 243 240 232 231 233 228 227 235 230 217 218 230 242 244 232 216 211 217 229 137 140 253 255 254 266 288 335 340 262 150 138 128 111 89 88 95 86 79 81 79 74 69 62 59 68 85 103 112 118 123 120 114 108 112
359 353 350 346 338 335 341 348 350 347 338 329 328 331 333 332 329 325 320 313 306 300 296 295 294 286 264 249 249 248 241 241 241 232 228 229 225 224 227 219 210 221 230 227 219 212 207 207 224 236 223 210 283 262 257 275 301 356 357 357 125 124 124 130 114 102 106 95 78 78 84 81 73 64 58 65 79 88 98 112 123 122 118 118 124
353 348 348 342 336 338 345 347 343 334 323 324 334 338 334 329 323 320 318 315 313 311 307 305 301 297 286 262 248 244 240 238 239 232 226 224 222 221 219 210 206 219 229 217 197 190 193 200 223 231 229 248 280 266 262 284 315 15 22 39 81 95 95 99 98 103 119 115 96 88 92 90 81 69 61 63 68 70 78 97 118 125 126 128 129
354 352 349 340 337 344 345 337 328 321 319 328 338 333 325 320 316 316 316 315 316 316 312 305 297 295 295 277 251 243 242 240 238 232 224 220 221 220 216 209 203 210 233 222 193 177 178 190 206 211 222 257 277 262 259 277 307 24 37 57 77 93 104 109 117 127 128 126 116 101 98 97 88 76 68 66 67 68 72 85 109 128 133 132 125
1 356 345 339 344 345 336 326 322 321 325 336 339 329 321 315 310 310 310 309 310 313 313 311 304 295 291 284 264 247 242 240 238 233 224 220 222 220 215 210 201 203 239 228 188 174 174 186 196 176 176 248 261 255 259 255 219 208 81 88 113 123 118 119 150 152 133 123 121 108 98 98 94 85 77 71 71 77 80 85 98 118 128 130 128
2 352 342 342 346 339 329 327 328 327 330 338 337 327 318 314 311 309 308 305 305 311 312 310 308 306 302 294 275 253 241 238 238 234 227 223 222 218 213 207 200 204 228 196 168 162 161 174 193 191 185 229 243 254 261 241 220 218 191 173 191 178 129 73 140 156 144 117 115 107 99 100 99 94 88 77 76 87 91 89 94 106 114 114 117
359 348 343 344 341 333 328 330 333 333 336 335 329 321 319 321 321 321 320 317 312 309 306 306 315 323 321 318 310 286 250 237 239 236 228 224 220 214 208 201 198 205 213 175 157 151 147 154 159 161 196 218 243 262 255 229 219 219 218 216 203 182 116 50 130 149 138 121 119 108 98 98 96 97 101 95 91 98 101 98 96 99 100 97 98
354 345 342 340 336 330 330 333 337 337 336 332 326 324 326 327 326 327 328 325 321 318 318 325 329 325 323 332 338 333 295 236 237 237 227 222 220 212 203 197 196 199 198 176 162 155 150 145 136 161 208 218 239 256 239 221 215 214 220 227 213 197 245 346 149 143 133 133 133 120 111 106 100 103 112 116 113 108 105 104 101 98 96 95 92
349 341 337 336 334 334 337 343 343 338 334 333 331 331 331 328 328 330 330 329 331 332 332 334 330 326 331 341 338 335 335 249 232 235 225 218 216 207 197 194 195 194 190 179 171 167 161 152 154 205 219 218 223 219 199 204 209 211 220 221 214 223 278 220 152 146 145 146 135 125 124 118 108 113 124 129 126 119 113 110 106 99 96 95 90
344 337 337 337 339 343 347 347 342 336 334 334 331 328 327 324 323 324 323 324 325 323 322 324 325 326 329 329 324 327 338 331 239 229 220 211 206 199 193 192 192 187 180 171 168 171 171 161 168 205 216 211 215 219 217 205 206 213 220 214 212 236 262 166 152 150 152 149 140 132 130 122 116 126 133 133 136 138 131 121 114 106 100 98 92
342 338 340 341 346 351 349 342 337 334 332 330 326 323 324 325 324 325 328 336 344 343 339 333 327 321 318 317 320 325 326 322 260 220 218 210 201 195 192 192 192 185 178 170 167 172 175 170 177 198 208 206 211 217 217 211 211 217 219 214 212 213 169 148 143 140 143 143 140 136 131 127 128 133 130 127 135 142 138 128 121 117 109 101 96
344 342 343 346 353 355 346 336 334 334 331 329 329 329 330 335 338 340 347 358 1 358 355 346 337 332 325 317 316 317 315 318 313 264 253 234 215 204 198 195 192 186 182 178 173 172 173 174 181 187 190 198 209 215 219 218 218 219 219 216 208 187 158 143 138 143 149 147 141 138 136 131 128 127 122 115 121 134 139 132 125 122 114 105 102
348 346 345 349 353 348 338 332 334 334 333 334 336 335 334 335 336 341 349 352 348 347 349 347 341 339 334 323 311 300 295 301 309 303 284 253 229 217 209 202 195 187 182 179 176 175 176 176 179 179 180 194 211 221 226 223 220 223 228 226 209 181 157 147 145 147 153 154 146 140 137 132 127 127 125 116 116 131 141 138 131 125 117 110 108
348 345 344 347 345 340 335 334 337 337 338 340 338 335 333 332 333 337 342 343 341 342 344 342 339 341 343 340 331 313 292 289 301 303 278 245 227 219 212 205 196 188 183 178 174 176 179 179 179 177 178 191 208 221 225 218 218 230 234 218 186 162 152 155 154 148 148 151 146 135 129 131 129 128 132 128 122 130 140 143 137 127 119 117 118
345 344 345 343 339 336 335 336 340 342 341 338 336 336 336 336 336 336 337 339 340 339 339 338 337 339 343 344 342 332 305 282 292 301 269 235 223 218 214 205 195 189 185 178 171 173 178 182 183 177 177 193 211 226 225 213 217 234 235 193 157 153 158 159 156 155 153 150 144 134 129 129 126 122 126 128 124 130 141 144 133 124 122 123 126
345 341 338 334 333 336 338 340 345 345 340 336 341 346 344 340 336 333 333 336 337 335 336 337 336 339 341 341 342 343 328 290 284 289 265 233 224 220 210 200 192 187 183 178 172 170 173 179 181 175 180 200 216 229 228 214 216 234 231 183 155 156 164 161 157 157 153 143 137 134 132 131 129 124 121 123 124 128 132 130 126 125 126 128 131
346 339 336 334 335 338 340 342 343 340 337 342 351 351 344 337 334 331 330 333 334 334 336 336 334 337 340 340 344 352 353 333 305 288 261 235 225 212 195 188 186 185 184 183 177 170 171 177 179 177 187 207 215 214 219 222 227 239 232 191 160 152 156 160 155 146 145 142 138 135 133 134 135 130 125 127 128 126 127 128 128 127 127 128 131
345 340 340 340 340 339 339 340 339 336 341 351 351 342 335 333 335 335 332 332 331 331 332 334 334 334 336 341 353 2 2 354 338 305 252 230 217 196 180 175 178 184 189 188 180 173 175 180 180 181 190 203 204 197 210 231 243 252 249 199 158 146 147 154 152 148 151 146 136 132 133 135 138 137 134 133 130 124 123 126 126 124 122 120 117
343 341 342 344 347 345 341 338 334 333 340 347 341 333 334 337 339 336 329 323 323 326 328 328 329 329 332 345 0 3 2 360 351 319 246 226 210 189 177 173 177 184 189 188 181 177 176 178 181 186 187 187 186 191 211 233 243 256 267 202 152 146 150 158 159 161 156 140 131 133 137 136 137 138 135 130 125 114 101 103 114 121 122 119 114
343 341 344 351 355 348 338 334 332 330 335 342 341 338 339 338 334 328 322 320 325 330 329 328 328 328 331 346 0 1 360 0 355 335 264 224 205 190 182 178 180 184 188 187 184 181 175 176 183 184 176 174 182 196 215 239 243 257 278 218 152 149 157 169 172 169 152 138 135 138 136 132 134 137 133 127 124 113 99 103 113 122 123 117 111
342 340 346 351 351 343 335 333 333 334 339 345 343 338 335 331 328 327 326 327 331 332 328 326 327 327 327 337 351 356 354 354 354 343 297 218 198 192 189 184 182 184 187 186 184 184 178 174 174 169 165 169 187 200 219 247 248 258 279 222 154 151 156 163 161 153 144 143 145 144 138 134 137 139 136 132 132 129 119 115 119 123 121 113 107
340 339 340 340 339 339 339 339 339 341 345 345 340 335 332 332 334 334 332 330 329 328 325 323 322 323 324 328 337 343 343 342 341 334 298 226 206 202 200 191 185 185 186 182 182 183 176 167 165 163 161 164 182 199 221 248 248 253 273 170 143 146 151 147 139 135 140 149 149 143 141 141 140 140 140 137 137 138 134 126 124 123 116 110 109
338 335 331 331 336 342 342 341 342 343 342 339 338 338 338 339 338 332 327 324 323 320 319 318 316 317 320 322 325 330 332 330 328 324 300 234 214 211 207 198 190 186 185 184 184 182 170 163 165 166 163 163 179 201 220 241 241 248 262 192 146 147 151 149 145 148 154 155 150 145 145 144 140 140 142 141 142 144 140 129 124 121 118 116 117
334 331 326 329 337 339 337 339 345 347 345 343 343 341 337 334 330 324 321 320 318 316 315 314 313 313 316 317 319 323 326 323 319 315 303 256 221 210 206 202 193 187 187 187 185 181 172 168 170 169 164 164 179 198 214 231 232 241 261 236 169 156 153 152 155 163 163 156 152 148 144 141 138 138 140 143 145 146 140 131 125 124 124 124 123
328 325 322 325 332 338 342 348 352 352 349 345 340 335 331 327 324 322 322 319 317 317 317 315 313 313 315 316 317 318 320 319 315 309 299 267 227 210 205 201 194 190 191 189 185 182 177 174 174 171 163 163 179 194 209 226 225 232 256 238 175 160 155 151 153 163 162 150 145 142 141 141 141 138 139 143 145 143 137 132 128 128 129 129 125
318 315 321 330 340 348 352 354 354 351 345 339 335 333 332 330 327 326 325 322 321 322 320 316 315 315 314 314 315 316 316 315 314 312 303 271 226 211 207 202 194 191 192 190 187 185 181 178 177 172 162 159 175 192 206 219 217 228 252 218 170 167 162 152 152 158 153 141 136 138 141 142 140 137 138 143 145 143 140 136 133 133 134 132 129
314 323 338 347 352 354 353 354 354 350 343 339 338 338 336 332 329 327 326 324 322 321 317 314 314 312 311 312 313 313 313 312 310 312 310 283 226 211 209 201 194 191 191 190 189 189 184 179 175 169 161 157 170 188 199 208 214 230 245 191 178 184 170 150 147 150 146 138 137 139 140 139 137 139 142 145 146 146 145 142 138 137 138 136 133
320 342 358 357 352 353 353 354 352 347 341 339 340 337 335 332 329 327 326 323 321 319 316 314 313 310 309 309 308 306 308 308 304 306 310 295 234 210 206 198 191 189 189 190 191 190 184 178 172 167 163 161 170 187 193 198 214 234 231 183 186 191 166 144 141 143 143 140 138 138 140 140 141 145 149 150 148 146 146 147 146 143 141 140 139
325 353 3 355 350 354 354 351 349 344 340 339 339 336 334 332 328 325 324 321 319 318 315 313 311 309 307 308 307 304 304 305 301 299 306 303 251 206 200 197 190 185 185 187 185 181 178 176 173 171 169 164 167 188 199 200 213 226 209 179 186 186 158 145 145 145 144 144 142 140 141 143 146 151 155 154 149 145 145 148 150 149 146 143 143
340 360 360 354 354 355 351 349 349 345 340 339 339 336 332 330 327 325 323 321 319 317 313 309 308 307 304 305 307 303 300 301 297 295 304 306 266 199 194 195 188 182 182 183 179 174 175 176 175 173 170 165 167 190 204 199 198 204 186 171 176 170 147 142 145 146 147 150 153 151 150 149 150 152 152 150 147 145 145 146 149 152 151 147 144
358 1 357 357 358 353 349 348 347 344 342 343 341 336 333 331 329 326 324 321 319 315 312 309 307 304 302 304 306 303 297 295 293 295 304 305 226 180 185 192 187 182 179 178 176 174 174 175 174 170 165 162 168 192 204 192 183 185 174 168 172 168 152 143 142 142 149 157 160 160 161 161 158 154 150 148 147 147 146 145 148 153 154 150 144
3 358 357 359 358 353 350 349 346 344 345 346 342 337 335 333 331 328 326 323 320 316 314 311 308 304 302 303 304 301 296 292 294 300 303 283 166 165 177 187 185 182 178 174 171 171 172 173 171 168 164 163 170 189 200 185 171 174 179 177 173 169 161 151 143 143 153 162 161 156 157 159 158 155 153 151 149 147 146 147 150 153 153 149 144
358 355 358 1 359 355 353 350 347 345 346 346 344 341 338 335 334 333 329 325 322 320 318 316 312 306 302 302 301 300 295 290 295 302 294 203 163 164 182 183 179 177 175 171 168 168 172 174 171 168 167 169 172 183 192 185 175 181 190 184 171 164 161 156 148 147 156 164 161 154 151 150 150 150 151 149 146 145 148 151 152 154 154 150 145
355 358 5 6 1 356 352 349 347 346 346 345 344 342 339 338 338 336 332 328 326 323 322 323 322 314 305 302 301 297 292 290 300 303 271 179 165 174 187 180 174 168 167 168 168 169 173 175 173 170 170 171 172 181 191 194 195 194 184 174 167 162 158 154 150 150 157 162 159 153 149 146 144 145 148 149 147 148 152 154 154 156 157 155 151